DMSP 5D-2 F11 DEB, 28327

Orbit data source: Space-Track

DMSP 5D-2 F11 DEB, 28327 is space debris in SSO originally from a launch on Thu, 28 Nov 1991 UTC launched from the Air Force Western Test Range (AFWTR). Debris objects in space refer to the collection of defunct objects orbiting the Earth. Examples of debris include non-operational satellites, rocket bodies, and fragments generated from explosions, collisions, or faulty payload assembly.

Loading next visibility...
Identifier
28327, 1991-082AQ
Orbit
SSO
Country
Flag of USUS
Related business
Manufacturer
Unknown
Mission
Spacecraft
Bus & Motor
Unknown
Mass
Unknown
Launch date (UTC)
1991-11-28 (34 years ago)
Launch vehicle
Unknown
Launch site
Air Force Western Test Range (AFWTR)
Object type
Payload
Rocket body
Debris
Shape & HBR
Unknown shape, 0.1 m
Radar Cross Section
Small (<0.1 m²)

Expand to show TLE details & history
Last TLE update: 6 days ago

TLE from 6 days ago
0 DMSP 5D-2 F11 DEB
1 28327U 91082AQ  25343.46958773  .00010662  00000-0  29044-2 0  9994
2 28327  98.6788  65.7227 0023456 183.4300 238.3456 14.47425507649096
Epoch: 2025-12-09T11:16Z
TLE epoch observation values (Epoch: 2025-12-09T11:16:12.379Z)
Latitude
60.45625°
Longitude
162.67931°
Altitude
753.131 km
Speed
7.479 km/s
True Right ascension
03h 20m 44s
True Declination
60° 18' 30"
Sunlit
Object was in full shadow at epoch
Visualization orbit readout
Latitude
Unknown
Longitude
Unknown
Altitude
Unknown
Speed
Unknown
Apparent Right ascension
Unknown
Apparent Declination
Unknown
Sunlit
N/A
Visualization observer readout
Local Sidereal Time
13:18:49
Azimuth
Unknown
Elevation
Unknown
Doppler factor
Unknown
Orbital elements
Apogee altitude
747.866 km
Perigee altitude
714.514 km
Semi-major axis
7,109.327 km
Eccentricity
0.00235
Inclination
98.6788°
RAAN
65.7227°
Arg. of periapsis
183.43°
True anomaly
238.11715°
Mean anomaly
238.3456°
Eccentric anomaly
238.23134°
Mean motion
3.62077 °/min
Orbital period
99.43 mins
BSTAR
0.0029044
Loading maneuver chart data...
Computing Atmospheric mass density...

Documentation

Showing up to 5 results
|